Preview of NWS' New Version of Forecast
This preview is not operational and should not be used for support decisions.

Regional Weather Roundup (RWR)

Issued by National Weather Service (NWS)

                            
000
ASUS46 KSEW 161010
RWRWA 

WASHINGTON REGIONAL WEATHER ROUNDUP
NATIONAL WEATHER SERVICE SEATTLE WA
200 AM PST SAT FEB 16 2019

NOTE:"FAIR" INDICATES FEW OR NO CLOUDS BELOW 12,000 FEET WITH NO 
SIGNIFICANT WEATHER AND/OR OBSTRUCTIONS TO VISIBILITY.

WAZ507-509-555>559-161100-
SEATTLE, TACOMA, EVERETT, AND VICINITY
  
CITY           SKY/WX    TMP DP  RH WIND       PRES   REMARKS
EVERETT        CLOUDY    36  34  92 CALM      29.73R                  
BOEING FIELD   CLOUDY    35  33  92 CALM      29.74R                  
RENTON         MOCLDY    35  32  88 CALM      29.74R                  
SEATAC AIRPORT MOCLDY    38  33  82 CALM      29.72S                  
JBLM-MCCHORD   CLOUDY    36  36 100 CALM      29.73R                  
PUYALLUP       DRIZZLE   36  36 100 CALM      29.72S                  
BREMERTON      CLOUDY    32  30  93 CALM      29.73R FOG              
JBLM-FT LEWIS  CLOUDY    36  36 100 CALM      29.73R                  
TACOMA NARROWS LGT RAIN  38  37  97 W5        29.73R                  
$$
 
WAZ001-503-506-510-514-515-161100-
NORTH INTERIOR
  
CITY           SKY/WX    TMP DP  RH WIND       PRES   REMARKS
BELLINGHAM     CLOUDY    34  31  88 N6        29.74R                  
FRIDAY HARBOR  MOCLDY    35  34  96 CALM      29.75R                  
EASTSOUND      CLOUDY    34  36 100 CALM      29.74R                  
PORT ANGELES   MOCLDY    35  32  88 SW7       29.74R                  
EDIZ HOOK      FAIR      37  35  92 SW7       29.74S                  
PORT TOWNSEND  CLOUDY    27  27 100 CALM      29.74R                  
NAS WHIDBEY    CLOUDY    38  33  82 E5        29.78R                  
ARLINGTON      FOG       29  28  96 CALM      29.75R VSB 3/4          
BURLINGTON       N/A    N/A N/A N/A MISG        N/A                   
$$
 
WAZ020-022-039-040-504-511-512-161100-
SOUTHWEST INTERIOR
  
CITY           SKY/WX    TMP DP  RH WIND       PRES   REMARKS
SHELTON        CLOUDY    34  32  92 CALM      29.72R FOG              
OLYMPIA        LGT RAIN  35  34  96 CALM      29.74R VSB 1            
CHEHALIS       CLOUDY    39  39 100 CALM      29.73S                  
KELSO          LGT RAIN  40  38  93 CALM      29.74R                  
VANCOUVER      CLOUDY    38  36  92 SE6       29.73S FOG              
SCAPPOOSE, OR  CLOUDY    42  38  85 SE3       29.73R                  
PORTLAND, OR   LGT RAIN  38  37  97 E10       29.74R                  
$$
 
WAZ021-516-517-161100-
WASHINGTON COAST
  
CITY           SKY/WX    TMP DP  RH WIND       PRES   REMARKS
FORKS          MOCLDY    30  28  92 CALM      29.74R                  
HOQUIAM        CLOUDY    41  39  93 NE3       29.73R                  
ASTORIA, OR    LGT RAIN  40  39  97 CALM      29.72R                  
$$
 
WAZ019-023-024-040-567>569-161100-
CASCADE MOUNTAINS AND COLUMBIA GORGE
  
CITY           SKY/WX    TMP DP  RH WIND       PRES   REMARKS
STAMPEDE PASS  FOG       26  23  88 VRB5      29.62R VSB 1/2          
TROUTDALE, OR  CLOUDY    37  34  89 E12       29.74S                  
HOOD RIVER, OR LGT SNOW  32  32 100 CALM      29.75S                  
THE DALLES, OR MOCLDY    28  27  96 NE3       29.78R FOG              
$$

WAZ026-027-041>044-520-521-161100-
EAST SLOPES
  
CITY           SKY/WX    TMP DP  RH WIND       PRES   REMARKS
OMAK           CLOUDY    29  28  96 CALM      29.77S                  
WENATCHEE      CLOUDY    27  24  89 CALM      29.78R                  
ELLENSBURG     CLOUDY    29  25  85 E3        29.73S FOG              
YAKIMA         LGT SNOW  30  28  92 CALM      29.76S FOG              
SUNNYSIDE ARPT LGT SNOW  29  29 100 CALM      29.78                   
YAKIMA TC      FLURRIES  28  25  86 E5        29.73S                  
$$

WAZ028-034-035-161100-
COLUMBIA BASIN
  
CITY           SKY/WX    TMP DP  RH WIND       PRES   REMARKS
EPHRATA        CLOUDY    30  27  88 N7        29.76S                  
MOSES LAKE     CLOUDY    30  28  92 CALM      29.78R                  
PASCO          CLOUDY    26  24  92 CALM      29.81S                  
RICHLAND ARPT  CLOUDY    29  28  97 CALM      29.81S FOG              
HERMISTON, OR  CLOUDY    30  27  88 NE14      29.75S FOG     WCI  19  
$$

WAZ036>038-161100-
NORTHEAST WASHINGTON
  
CITY           SKY/WX    TMP DP  RH WIND       PRES   REMARKS
SPOKANE GEIGER FOG       28  25  88 S6        29.71F VSB 1/2          
SPOKANE FELTS  CLOUDY    30  27  88 S5        29.74S                  
FAIRCHILD AFB  CLOUDY    26  26 100 CALM      29.70S FOG              
COEURDALENE,ID CLOUDY    27  26  96 SW6       29.72S                  
DEER PARK      CLOUDY    28  26  92 CALM      29.72S FOG              
$$

WAZ029>033-161100-
SOUTHEAST WASHINGTON
  
CITY           SKY/WX    TMP DP  RH WIND       PRES   REMARKS
PULLMAN        FOG       24  23  96 NE7       29.73S VSB 1/2          
LEWISTON, ID   FOG       30  27  88 CALM      29.77R VSB 1/4          
WALLA WALLA    FOG       27  25  92 S10       29.76S VSB 1/4 WCI  17  
PENDLETON, OR  CLOUDY    34  28  79 E10       29.70F WCI  26          
$$